Weather History for Cheboygan, MI

Change the Weather History Date:

Sunday, April 13, 2014

  Actual Average (KPLN) Record (KPLN)
Temperature  
Mean Temperature 38 °F -  
Max Temperature 42 °F 51 °F 75 °F (1998)
Min Temperature 34 °F 29 °F 3 °F (1992)
Degree Days  
Heating Degree Days 27    
Moisture  
Dew Point 37 °F    
Average Humidity 97    
Maximum Humidity 100    
Minimum Humidity 91    
Precipitation  
Precipitation 0.00 in - - ()
Sea Level Pressure  
Sea Level Pressure 29.77 in    
Wind  
Wind Speed 8 mph (NE)    
Max Wind Speed 14 mph    
Max Gust Speed 21 mph    
Visibility 5 miles    
Events Fog , Rain , Snow    
Averages and records for this station are not official NWS values.
T = Trace of Precipitation, MM = Missing Value Source: NWS Daily Summary

Daily Weather History Graph

Daily Weather History Graph

Search for Another Location

Airport:

Trip Planner

Search our weather history database for the weather conditions in past years. The results will help you decide how hot, cold, wet, or windy it might be!

Date:

Astronomy

Apr. 13, 2014 Rise Set
Actual Time 6:55 AM EDT 8:22 PM EDT
Civil Twilight 6:25 AM EDT 8:52 PM EDT
Nautical Twilight 5:47 AM EDT 9:30 PM EDT
Astronomical Twilight 5:07 AM EDT 10:10 PM EDT
Moon 6:55 PM EDT (4/13) 5:59 AM EDT (4/13)
Length of Visible Light 14h 27m
Length of Day
13h 26m
Waxing Gibbous, 97% of the Moon is Illuminated
Apr 13
Waxing Gibbous
Apr 15
Full
Apr 22
Last Quarter
Apr 29
New
May 6
First Quarter

Hourly Weather History & Observations

Time (EDT) Temp. Windchill Dew Point Humidity Pressure Visibility Wind Dir Wind Speed Gust Speed Precip Events Conditions
12:16 AM 36.9 °F 28.7 °F 36.1 °F 97% 29.91 in 10.0 mi East 12.7 mph 19.6 mph N/A   Overcast
12:36 AM 36.7 °F 29.4 °F 36.0 °F 97% 29.90 in 10.0 mi East 10.4 mph 20.7 mph N/A   Overcast
12:56 AM 36.9 °F 28.7 °F 36.1 °F 97% 29.88 in 7.0 mi East 12.7 mph 17.3 mph N/A   Overcast
1:16 AM 37.0 °F 28.5 °F 36.5 °F 98% 29.86 in 7.0 mi East 13.8 mph 18.4 mph N/A   Overcast
1:36 AM 36.9 °F 28.2 °F 36.1 °F 97% 29.85 in 2.5 mi East 13.8 mph 20.7 mph N/A   Overcast
1:56 AM 36.7 °F 29.4 °F 36.1 °F 98% 29.84 in 2.5 mi East 10.4 mph 16.1 mph N/A Snow Light Snow
2:16 AM 36.7 °F 29.4 °F 36.1 °F 98% 29.83 in 3.0 mi East 10.4 mph - N/A   Overcast
2:37 AM 36.7 °F 29.9 °F 36.0 °F 97% 29.83 in 10.0 mi East 9.2 mph - N/A   Overcast
2:56 AM 36.5 °F 29.2 °F 36.0 °F 98% 29.81 in 7.0 mi East 10.4 mph - N/A   Overcast
3:16 AM 36.5 °F 30.3 °F 36.0 °F 98% 29.81 in 2.5 mi East 8.1 mph - N/A   Overcast
3:37 AM 36.1 °F 30.6 °F 35.8 °F 99% 29.80 in 1.0 mi East 6.9 mph - N/A   Overcast
3:56 AM 36.0 °F 30.3 °F 35.8 °F 99% 29.79 in 0.5 mi East 6.9 mph - N/A Fog Fog
4:16 AM 35.6 °F 31.7 °F 35.6 °F 100% 29.78 in 0.5 mi ENE 4.6 mph - N/A Fog Fog
4:36 AM 34.9 °F 29.9 °F 34.9 °F 100% 29.78 in 0.5 mi NE 5.8 mph - N/A Fog Fog
4:57 AM 34.7 °F 28.1 °F 34.7 °F 100% 29.78 in 0.5 mi ENE 8.1 mph - N/A Fog Fog
5:16 AM 34.7 °F 26.4 °F 34.7 °F 100% 29.76 in 0.5 mi ENE 11.5 mph - N/A Snow Light Snow
5:36 AM 34.3 °F 26.5 °F 34.3 °F 100% 29.75 in 0.5 mi ENE 10.4 mph - N/A Snow Light Snow
5:57 AM 34.7 °F 28.8 °F 34.7 °F 100% 29.77 in 0.5 mi ENE 6.9 mph - N/A Fog Fog
6:16 AM 34.7 °F 31.8 °F 34.7 °F 100% 29.77 in 0.2 mi East 3.5 mph - N/A Fog Fog
6:36 AM 34.7 °F 31.8 °F 34.7 °F 100% 29.76 in 0.2 mi ENE 3.5 mph - N/A Fog Fog
6:56 AM 34.7 °F 31.8 °F 34.7 °F 100% 29.75 in 0.2 mi ENE 3.5 mph - N/A Snow Light Snow
7:16 AM 35.1 °F 32.2 °F 35.1 °F 100% 29.76 in 0.5 mi East 3.5 mph - N/A Rain Light Rain
7:36 AM 35.2 °F 32.4 °F 35.2 °F 100% 29.76 in 1.0 mi SE 3.5 mph - N/A Snow Light Snow
7:56 AM 35.6 °F - 35.6 °F 100% 29.77 in 1.2 mi Calm Calm - N/A Snow Light Snow
8:16 AM 35.6 °F - 35.6 °F 100% 29.75 in 1.8 mi Calm Calm - N/A Rain Light Rain
8:36 AM 35.2 °F 30.3 °F 35.2 °F 100% 29.71 in 0.2 mi East 5.8 mph - N/A Rain Light Rain
8:56 AM 34.7 °F 26.9 °F 34.7 °F 100% 29.68 in 0.5 mi NE 10.4 mph - N/A Fog Fog
9:16 AM 34.3 °F 28.4 °F 34.3 °F 100% 29.72 in 1.2 mi NE 6.9 mph - N/A   Overcast
9:36 AM 34.3 °F 28.4 °F 34.3 °F 100% 29.73 in 0.5 mi NNE 6.9 mph - N/A Fog Fog
9:57 AM 34.7 °F 28.8 °F 34.7 °F 100% 29.72 in 0.5 mi ENE 6.9 mph - N/A Fog Fog
10:16 AM 34.7 °F 30.6 °F 34.7 °F 100% 29.73 in 0.5 mi NNE 4.6 mph - N/A Fog Fog
10:36 AM 35.1 °F 31.0 °F 35.1 °F 100% 29.74 in 0.8 mi NNE 4.6 mph - N/A   Overcast
10:57 AM 36.0 °F 33.3 °F 36.0 °F 100% 29.75 in 1.0 mi NE 3.5 mph - N/A   Overcast
11:36 AM 36.5 °F 31.8 °F 36.5 °F 100% 29.75 in 1.0 mi NE 5.8 mph - N/A   Overcast
11:56 AM 36.9 °F 34.3 °F 36.9 °F 100% 29.76 in 2.0 mi NE 3.5 mph - N/A   Overcast
12:16 PM 37.2 °F 33.6 °F 37.2 °F 100% 29.76 in 1.5 mi NE 4.6 mph - N/A   Overcast
12:36 PM 37.0 °F 33.3 °F 37.0 °F 100% 29.76 in 0.5 mi NE 4.6 mph - N/A Fog Fog
12:56 PM 37.8 °F 33.3 °F 37.8 °F 100% 29.75 in 0.5 mi NE 5.8 mph - N/A Fog Fog
1:16 PM 37.8 °F 33.3 °F 37.8 °F 100% 29.75 in 0.5 mi NE 5.8 mph - N/A Fog Fog
1:37 PM 38.3 °F 33.9 °F 38.3 °F 100% 29.75 in 1.0 mi NE 5.8 mph - N/A   Overcast
1:56 PM 39.4 °F 35.2 °F 39.4 °F 100% 29.74 in 3.0 mi NE 5.8 mph - N/A   Overcast
2:16 PM 40.5 °F 36.5 °F 40.5 °F 100% 29.77 in 7.0 mi North 5.8 mph - N/A   Overcast
2:37 PM 40.8 °F 37.8 °F 40.5 °F 99% 29.77 in 5.0 mi North 4.6 mph - N/A   Overcast
2:56 PM 41.7 °F 38.0 °F 40.8 °F 97% 29.76 in 7.0 mi North 5.8 mph - N/A   Overcast
3:16 PM 41.7 °F 36.7 °F 40.3 °F 95% 29.77 in 7.0 mi North 8.1 mph - N/A   Overcast
3:36 PM 42.3 °F 38.6 °F 40.5 °F 93% 29.76 in 10.0 mi North 5.8 mph - N/A   Overcast
3:56 PM 42.3 °F 36.8 °F 40.3 °F 93% 29.77 in 10.0 mi North 9.2 mph - N/A   Overcast
4:16 PM 42.1 °F 37.1 °F 40.1 °F 93% 29.77 in 10.0 mi NW 8.1 mph - N/A   Overcast
4:36 PM 42.3 °F 40.5 °F 40.1 °F 92% 29.79 in 10.0 mi North 3.5 mph - N/A   Overcast
4:46 PM 42.8 °F 41.1 °F 40.3 °F 91% 29.78 in 10.0 mi North 3.5 mph - N/A   Overcast
5:18 PM 42.1 °F 39.2 °F 40.8 °F 95% 29.77 in 10.0 mi North 4.6 mph - N/A   Overcast
5:36 PM 42.1 °F 40.2 °F 41.0 °F 96% 29.77 in 10.0 mi North 3.5 mph - N/A   Overcast
5:44 PM 42.1 °F - 40.8 °F 95% 29.78 in 10.0 mi Calm Calm - N/A   Overcast
6:18 PM 42.6 °F - 40.6 °F 93% 29.80 in 10.0 mi Calm Calm - N/A   Overcast
6:21 PM 42.8 °F - 41.0 °F 93% 29.80 in 10.0 mi Calm Calm - N/A   Overcast
6:36 PM 42.8 °F - 41.4 °F 95% 29.81 in 10.0 mi Calm Calm - N/A   Overcast
6:56 PM 42.8 °F 41.1 °F 41.0 °F 93% 29.79 in 10.0 mi NNE 3.5 mph - N/A   Overcast
7:16 PM 42.8 °F 40.1 °F 40.6 °F 92% 29.79 in 10.0 mi North 4.6 mph - N/A   Overcast
7:36 PM 42.4 °F 39.6 °F 40.6 °F 93% 29.78 in 10.0 mi North 4.6 mph - N/A   Overcast
7:57 PM 41.7 °F 39.8 °F 40.3 °F 95% 29.77 in 10.0 mi NNW 3.5 mph - N/A   Overcast
8:16 PM 41.4 °F 39.4 °F 40.1 °F 95% 29.76 in 10.0 mi NNW 3.5 mph - N/A   Overcast
8:35 PM 41.0 °F 38.0 °F 39.7 °F 95% 29.75 in 10.0 mi North 4.6 mph - N/A   Overcast
8:56 PM 41.0 °F 39.0 °F 39.7 °F 95% 29.75 in 10.0 mi NNE 3.5 mph - N/A   Overcast
9:16 PM 40.8 °F 38.8 °F 39.2 °F 94% 29.75 in 10.0 mi North 3.5 mph - N/A   Overcast
9:36 PM 40.5 °F 38.4 °F 39.2 °F 95% 29.75 in 10.0 mi North 3.5 mph - N/A   Overcast
9:57 PM 40.1 °F 38.0 °F 38.8 °F 95% 29.75 in 10.0 mi NNW 3.5 mph - N/A   Overcast
10:16 PM 39.7 °F 34.9 °F 38.5 °F 95% 29.75 in 10.0 mi NNW 6.9 mph - N/A   Overcast
10:36 PM 38.7 °F 32.4 °F 37.4 °F 95% 29.74 in 7.0 mi North 9.2 mph - N/A Rain Light Rain
10:57 PM 37.8 °F 31.8 °F 36.9 °F 97% 29.73 in 4.0 mi NNW 8.1 mph - N/A Rain Light Rain
11:16 PM 37.4 °F 30.8 °F 36.9 °F 98% 29.72 in 3.0 mi NNW 9.2 mph - N/A Snow Light Snow
11:36 PM 36.7 °F 28.9 °F 36.5 °F 99% 29.70 in 3.0 mi North 11.5 mph - N/A Snow Light Snow
11:56 PM 36.0 °F 28.0 °F 35.8 °F 99% 29.68 in 2.5 mi North 11.5 mph - N/A Snow Light Snow